Location: Unspecified
(0.0000°N, 0.0000°E)
Time: 15:46:22
(UTC+00:00)

AO-73 - Visible Passes

Search period start: 18 October 2019 00:00
Search period end: 28 October 2019 00:00
Orbit: 582 x 663 km, 97.6° (Epoch: 18 October)

Date Brightness Start Highest point End Pass type
(mag) Time Alt. Az. Time Alt. Az. Time Alt. Az.
18 Oct ? 18:41:01 10° SSW 18:44:37 30° WSW 18:48:14 10° NW visible
19 Oct ? 05:15:11 10° ENE 05:17:46 15° ESE 05:20:22 10° SE visible
19 Oct ? 19:00:09 10° SW 19:02:45 16° WSW 19:05:22 10° WNW visible
22 Oct ? 18:17:08 10° S 18:21:14 68° WSW 18:25:21 10° NNW visible
23 Oct ? 18:35:37 10° SSW 18:39:23 35° WSW 18:43:10 10° NW visible
24 Oct ? 05:10:33 10° ENE 05:12:37 13° ESE 05:14:40 10° SE visible
24 Oct ? 18:54:34 10° SSW 18:57:31 19° WSW 19:00:30 10° NW visible
25 Oct ? 19:15:10 10° WSW 19:15:39 10° WSW 19:16:09 10° W visible
27 Oct ? 18:11:51 10° S 18:15:59 80° WSW 18:20:11 10° NNW visible
